Location: Okie-Tex Star Party
(36.8978°N, 102.9520°W)
Time: 10:16:42
(UTC-06:00)

Daily predictions for brighter satellites

Satellite Brightness Start Highest point End
(mag) Time Altitude Azimuth Time Altitude Azimuth Time Altitude Azimuth
FALCON 9 R/B 3.6 18:47:21 10° WSW 18:52:51 76° S 19:14:17 10° E
USA 238 DEB 4.5 18:49:20 10° SW 18:56:03 56° NW 19:02:54 10° NNE
USA 238 4.5 18:49:25 10° SW 18:56:09 56° NW 19:03:00 10° NNE
Cosmos 2333 Rocket 2.2 18:54:49 10° NNW 19:00:30 74° ENE 19:06:07 10° SSE
ERS-2 3.6 18:58:14 10° ESE 19:00:47 18° ENE 19:03:20 10° NNE
Abrixas rocket 2.3 18:58:35 10° WNW 19:01:45 75° SW 19:04:54 10° SE
Cosmos 1725 Rocket 4.1 18:56:27 10° N 19:02:48 87° W 19:09:04 10° S
Cosmos 2082 3.9 18:59:26 10° S 19:04:48 49° ESE 19:10:12 10° NNE
COSMOS 2428 3.7 19:01:05 10° NNW 19:06:39 54° WSW 19:12:10 10° S
ORS 1 (USA 231) 3.9 19:06:43 10° WNW 19:09:12 87° N 19:11:42 10° ESE
Cosmos 1633 3.9 19:08:42 10° SE 19:11:17 19° E 19:13:53 10° NE
Cosmos 1674 Rocket 4.3 19:08:50 10° NNE 19:12:39 30° ENE 19:16:26 10° SE
Envisat 4.4 19:10:20 10° ESE 19:13:28 17° ENE 19:16:35 10° NNE
Okean 1-7 4.3 19:09:21 10° NNW 19:13:35 47° W 19:17:47 10° SSW
SL-8 R/B 3.9 19:09:11 10° SW 19:13:51 58° SE 19:18:33 10° ENE
YAOGAN 1 3.6 19:13:44 10° S 19:17:56 52° W 19:22:10 10° NNW
EO 1 Del DPAF 3.2 19:16:09 10° NNE 19:19:58 71° ESE 19:23:46 10° S
SeaSat 1 3.6 19:18:44 10° ESE 19:22:38 24° NE 19:26:32 10° N
Cosmos 1371 Rocket 4.3 19:18:36 10° NNW 19:23:52 75° WSW 19:29:09 10° S
Cosmos 1733 Rocket 2.9 19:21:05 10° S 19:25:24 80° E 19:29:44 10° N
Cosmos 1980 3.7 19:20:34 10° NNW 19:26:17 77° ENE 19:31:57 10° SSE
USA 215 3.3 19:20:28 10° NE 19:27:00 70° SE 19:33:29 10° SW
Aureole 3 4.3 19:21:18 10° S 19:27:40 60° E 19:32:44 10° NNE
OAO 2 Rocket 4.2 19:26:36 10° SW 19:31:04 35° SSE 19:34:20 16° E
FengYun 1-2 T 4.3 19:26:49 10° SSE 19:32:12 57° ENE 19:37:35 10° N
NOSS 0 Rocket 4.2 19:26:16 10° NNW 19:32:28 75° WSW 19:38:38 10° SSE
Resurs 01 Rocket 3.5 19:33:23 13° NE 19:33:23 13° NE 19:34:41 10° NE
NOSS 3-2 (C) 3.7 19:26:52 10° SW 19:32:42 70° NW 19:39:09 10° NNE
Shenzhou-11 Module 2.1 19:32:24 10° WNW 19:35:23 67° SSW 19:37:25 18° SE
Okean 3 3.7 19:32:56 10° N 19:36:57 44° E 19:40:56 10° SSE
SJ-6B 3.2 19:40:56 10° SE 19:44:22 36° ENE 19:47:52 10° N
DELTA 2 R/B (2) 3.5 19:46:17 10° W 19:47:45 49° WSW 19:47:45 49° WSW
SPOT 3 Rocket 4.1 19:44:28 10° S 19:49:36 62° WSW 19:54:46 10° NNW
Tsikada Rocket 4.5 19:47:25 10° SSE 19:53:11 37° E 19:58:59 10° NNE
Tiangong 2 1.5 19:54:09 10° WNW 19:57:14 47° NNE 19:57:38 44° NE
Cosmos 2219 Rocket 4.3 19:53:23 10° NW 19:58:10 29° WSW 20:02:55 10° SSW
USA 267 4.4 19:56:05 20° ENE 19:58:50 26° NNE 20:04:00 10° NNW
Cosmos 1452 Rocket 3.4 19:54:24 10° NNW 19:59:40 69° ENE 20:04:53 10° SSE
Okean 1 3.7 19:56:02 10° N 19:59:44 38° ENE 19:59:44 38° ENE
FREGAT/IRIS 2.8 19:56:53 10° S 19:59:49 67° W 20:02:46 10° NNW
Meteor 1-14 Rocket 4.4 19:56:10 10° S 20:01:53 82° W 20:07:48 10° N
Cosmos 44 Rocket 3.8 19:58:47 10° NNW 20:03:33 41° NE 20:04:47 35° E
CENTAUR R/B 2.4 19:58:59 10° SSW 20:04:50 82° ESE 20:11:32 10° NNE
Cosmos 1048 Rocket 4.0 19:59:57 10° S 20:05:12 63° ESE 20:10:27 10° NNE
Sich 1 Rocket 3.5 20:02:04 10° S 20:06:33 70° E 20:11:01 10° NNE
H-2A R/B 4.1 20:03:45 10° S 20:07:28 42° W 20:11:12 10° NNW
Cosmos 2227 Rocket 3.7 20:02:43 10° SW 20:07:53 36° WNW 20:13:05 10° N
BREEZE-M DEB (TANK) 3.7 20:06:48 10° NNW 20:07:52 17° N 20:07:52 17° N
Geosat 4.0 20:05:21 16° NE 20:09:18 60° ESE 20:14:16 10° SSW
Cosmos 2237 Rocket 3.2 20:05:44 10° NW 20:11:05 46° WSW 20:16:25 10° S
Cosmos 1378 Rocket 3.4 20:08:06 10° N 20:12:31 86° E 20:16:57 10° S
SL-16 R/B 2.1 20:08:02 10° NNW 20:13:42 71° ENE 20:17:32 21° SSE
Cosmos 1782 Rocket 3.5 20:09:50 10° S 20:14:13 63° E 20:18:36 10° NNE
Cosmos 1464 Rocket 3.9 20:09:18 10° N 20:15:28 88° W 20:21:36 10° S
Cosmos 158 Rocket 4.3 20:13:26 10° SSW 20:18:17 62° WNW 20:23:08 10° N
Iridium 4 Rocket 3.4 20:14:41 10° N 20:19:37 76° W 20:24:05 10° S
CZ-2D R/B 3.1 20:18:27 29° SSE 20:20:23 90° W 20:24:19 10° NNW
Cosmos 1420 Rocket 3.9 20:16:55 10° NNW 20:22:13 88° ENE 20:26:18 17° SSE
Cosmos 2297 Rocket 3.9 20:17:13 10° WSW 20:22:14 32° WNW 20:27:17 10° N
Meteor 1-18 Rocket 4.4 20:23:56 10° NNW 20:29:30 69° W 20:34:59 10° S
Lacrosse 5 3.3 20:26:52 10° WNW 20:31:25 34° WSW 20:35:27 12° S
ERS-2 4.4 20:31:10 10° SSW 20:34:14 25° W 20:37:19 10° NW
Cosmos 44 3.6 20:38:02 10° NW 20:43:05 68° WSW 20:44:21 49° S
Thor Agena Rocket 4.4 20:40:26 10° N 20:45:18 46° WNW 20:50:06 10° SW
Cosmos 1437 Rocket 3.5 20:41:44 10° SSW 20:45:35 52° W 20:45:35 52° W
Meteor 1-19 Rocket 4.1 20:42:34 10° N 20:47:31 69° NNE 20:47:31 69° NNE
Cosmos 2034 Rocket 4.4 20:43:12 10° NNW 20:49:30 65° W 20:55:46 10° S
Envisat 3.6 20:47:03 10° S 20:52:00 53° W 20:56:59 10° NNW
SeaSat 1 3.5 20:58:01 30° SSW 20:59:53 42° WSW 21:04:34 10° NW
CZ-4C R/B 4.1 20:58:00 10° NNW 21:02:08 24° NNE 21:02:08 24° NNE
Cosmos 2227 4.4 21:00:45 10° SSW 21:06:05 69° W 21:06:05 69° W
Resurs 01 Rocket 3.5 21:10:57 25° NW 21:10:57 25° NW 21:12:54 10° NNW
USA 215 4.5 21:06:09 21° NNE 21:09:39 35° NNW 21:15:27 10° W
USA 267 4.1 21:43:26 44° NNW 21:43:26 44° NNW 21:47:41 10° NW
